Location: Chassagnes
(44.4047°N, 4.1657°E)
Time: 13:04:52
(UTC+00:00)

USA 305 - Pass Details

Date: 27 October 2020
Orbit: 569 x 577 km, 54.0° (Epoch: 22 November)

Event Time Altitude Azimuth Distance (km) Brightness Sun altitude
Rises 17:44:59 0° 305° (NW) 2,787 7.2 -12.3°
Reaches altitude 10° 17:47:26 10° 315° (NW) 1,886 6.1 -12.7°
Maximum altitude 17:51:20 33° 21° (NNE) 972 3.8 -13.4°
Enters shadow 17:53:24 22° 69° (ENE) 1,290 4.1 -13.8°
